TimeMST,TemperatureF,Dew PointF,Humidity,Sea Level PressureIn,VisibilityMPH,Wind Direction,Wind SpeedMPH,Gust SpeedMPH,PrecipitationIn,Events,Conditions,WindDirDegrees,DateUTC
12:51 AM,30.0,18.0,61,29.85,10.0,North,3.5,-,N/A,,Clear,10,2013-02-26 07:51:00
1:51 AM,28.0,18.0,66,29.84,10.0,Calm,Calm,-,N/A,,Clear,0,2013-02-26 08:51:00
2:51 AM,27.0,19.9,75,29.82,10.0,Calm,Calm,-,N/A,,Clear,0,2013-02-26 09:51:00
3:51 AM,25.0,19.0,78,29.83,10.0,NW,4.6,-,N/A,,Clear,320,2013-02-26 10:51:00
4:51 AM,23.0,17.1,78,29.83,10.0,Calm,Calm,-,N/A,,Clear,0,2013-02-26 11:51:00
5:51 AM,23.0,16.0,74,29.84,10.0,WSW,5.8,-,N/A,,Clear,250,2013-02-26 12:51:00
6:51 AM,25.0,17.1,72,29.84,10.0,Calm,Calm,-,N/A,,Clear,0,2013-02-26 13:51:00
7:51 AM,28.9,19.9,69,29.86,10.0,Calm,Calm,-,N/A,,Clear,0,2013-02-26 14:51:00
8:51 AM,34.0,23.0,64,29.86,10.0,Calm,Calm,-,N/A,,Clear,0,2013-02-26 15:51:00
9:51 AM,43.0,23.0,45,29.81,10.0,Variable,3.5,-,N/A,,Clear,0,2013-02-26 16:51:00
10:51 AM,53.1,21.0,29,29.77,10.0,ESE,8.1,-,N/A,,Clear,120,2013-02-26 17:51:00
11:51 AM,59.0,9.0,14,29.73,10.0,SE,10.4,-,N/A,,Clear,130,2013-02-26 18:51:00
12:51 PM,61.0,7.0,12,29.69,10.0,ESE,11.5,19.6,N/A,,Clear,110,2013-02-26 19:51:00
1:51 PM,64.0,1.9,8,29.65,10.0,ESE,13.8,20.7,N/A,,Clear,120,2013-02-26 20:51:00
2:51 PM,66.0,3.0,8,29.61,10.0,NE,12.7,26.5,N/A,,Clear,50,2013-02-26 21:51:00
3:51 PM,66.9,1.9,8,29.63,10.0,NW,11.5,-,N/A,,Clear,320,2013-02-26 22:51:00
4:51 PM,64.0,1.9,8,29.66,10.0,WNW,19.6,28.8,N/A,,Clear,300,2013-02-26 23:51:00
5:51 PM,57.0,10.9,16,29.72,10.0,NNW,23.0,31.1,N/A,,Clear,340,2013-02-27 00:51:00
6:51 PM,48.0,10.0,22,29.80,10.0,North,26.5,29.9,N/A,,Clear,360,2013-02-27 01:51:00
7:51 PM,46.0,7.0,20,29.82,10.0,NNW,23.0,28.8,N/A,,Clear,340,2013-02-27 02:51:00
8:51 PM,45.0,5.0,19,29.87,10.0,North,19.6,29.9,N/A,,Clear,350,2013-02-27 03:51:00
9:51 PM,43.0,3.9,20,29.91,10.0,NNW,18.4,24.2,N/A,,Clear,330,2013-02-27 04:51:00
10:51 PM,41.0,3.0,21,29.92,10.0,NNW,26.5,34.5,N/A,,Clear,330,2013-02-27 05:51:00
11:51 PM,39.0,5.0,24,29.96,10.0,NW,13.8,-,N/A,,Clear,310,2013-02-27 06:51:00